Regional Weather Roundup
Issued by NWS Bismarck, ND

Home | Current Version | Previous Version | Text Only | Print | Product List | Glossary On
Versions: 1 2 3 4 5 6 7 8 9 10 11 12 13 14 15 16 17 18 19 20 21 22 23 24 25 26 27 28 29 30 31 32 33 34 35 36 37 38 39 40 41 42 43 44 45 46 47 48 49 50
000
ASUS43 KBIS 280410
RWRBIS

NWR BROADCAST TEXT
NATIONAL WEATHER SERVICE BISMARCK ND
1100 PM CDT MON APR 27 2015

NOTE: "FAIR" INDICATES FEW OR NO CLOUDS BELOW 12,000 FEET WITH NO
SIGNIFICANT WEATHER AND/OR OBSTRUCTIONS TO VISIBILITY.


CITY           SKY/WX    TMP DP  RH WIND       PRES   REMARKS
WILLISTON      PTCLDY    44  38  79 SW5       30.29R
MINOT          CLEAR     43  38  82 SW9       30.27R
MINOT AFB      CLEAR     42  42  99 S6        30.26R
BISMARCK       PTCLDY    45  39  79 W3        30.30F
DICKINSON      CLEAR     36  33  89 W7        30.30R
GARRISON         N/A     37  35  92 CALM      30.29R
HETTINGER ARPT CLOUDY    43  38  82 CALM      30.33S
JAMESTOWN      LGT RAIN  46  44  93 NW6       30.27S
BEACH          FAIR      36  36 100 CALM      30.33S
CARRINGTON     CLOUDY    45  45 100 NW7       30.29S
CROSBY         FAIR      39  39 100 S7        30.28R
HARVEY           N/A    N/A N/A N/A MISG        N/A
HAZEN          CLOUDY    32  32 100 S3        30.31S
LINTON         CLOUDY    46  46 100 NW3       30.30F
MANDAN         MOCLDY    41  39  93 W5        30.31S
OAKES            N/A     48  45  87 NW20      30.26R
STANLEY        FAIR      39  39 100 SW5       30.29S
WATFORD CITY   FAIR      39  37  93 SW6       30.29R
$$

CITY           SKY/WX    TMP DP  RH WIND       PRES   REMARKS
GRAND FORKS    LGT RAIN  48  45  89 N10       30.25S
GRAND FORKS AF LGT RAIN  48  46  93 N5        30.26F
DEVILS LAKE    PTCLDY    43  37  81 NW6       30.26F
FARGO          CLOUDY    53  41  63 N18       30.22R
CANDO          FAIR      37  37 100 W3        30.28R FOG
CAVALIER       FOG       43  43 100 CALM      30.26F VSB<1/4
GRAFTON        FAIR      46  46 100 N5        30.27S
GWINNER        CLEAR     52  41  66 N18       30.25R
LANGDON        FOG       36  36 100 CALM      30.27S VSB<1/4
WALHALLA       FAIR      41  41 100 W5        30.26F
$$

CITY           SKY/WX    TMP DP  RH WIND       PRES   REMARKS
ABERDEEN       CLOUDY    52  42  69 N18       30.26R
MOBRIDGE       CLOUDY    47  44  90 N6        30.28F
BUFFALO          N/A     44  37  76 W3        30.27S
RAPID CITY     CLOUDY    44  38  79 N8        30.34S
GLASGOW        PTCLDY    45  34  65 SE10      30.27R
SIDNEY         PTCLDY    45  36  70 SW9       30.31R
WOLF POINT     PTCLDY    47  37  68 S5        30.30R
GLENDIVE       PTCLDY    39  34  81 SW6       30.33S
MILES CITY     PTCLDY    43  36  76 SE6       30.33R
BAKER          PTCLDY    34  31  88 S7        30.34R
$$

CITY           SKY/WX    TMP DP  RH WIND       PRES   REMARKS
BILLINGS       CLEAR     50  34  54 S7        30.28R
GREAT FALLS    CLEAR     48  31  51 S8        30.20R
REGINA         CLEAR     46  32  57 S7        30.24S
ESTEVAN        PTCLDY    45  36  70 SE3       30.27R
$$




USA.gov is the U.S. government's official web portal to all federal, state and local government web resources and services.